This demonstration page uses our WeatherBlox Daily Observations layout. Learn more.

Left ArrowRight Arrow

40.92945, -100.16068

Hourly Observations for May 16, 2015

Temp ( °F °C ) Dew Point ( °F °C ) Humidity (%) Winds ( mph kmh ) Pressure ( in mb ) Visibility ( mi km ) Precip ( " mm )
12:15 am 00:15 Mostly Cloudy 66 19.1 64 17.5 91 91 SE 16 26 29.62 1003 10 16.0934 N/A
12:35 am 00:35 Cloudy with Nearby Thunderstorms 67 19.5 64 17.6 89 89 SSE 18 30 29.62 1003 10 16.0934 N/A
12:55 am 00:55 Cloudy with Nearby Thunderstorms 67 19.5 64 17.6 89 89 S 24 39 29.62 1003 7 11.26538 0.01 0.254
1:15 am 01:15 Partly Cloudy 67 19.3 64 17.7 91 91 SSE 17 28 29.62 1003 10 16.0934 0.01 0.254
1:35 am 01:35 Clear 66 19.1 64 17.7 92 92 SSE 18 30 29.62 1003 10 16.0934 0.01 0.254
1:55 am 01:55 Clear 66 18.7 63 17.1 90 90 SSE 13 20 29.62 1003 10 16.0934 0.01 0.254
2:15 am 02:15 Clear 65 18.1 61 16.1 88 88 S 17 28 29.62 1003 10 16.0934 N/A
2:35 am 02:35 Clear 63 17.2 59 14.9 86 86 S 15 24 29.62 1003 10 16.0934 N/A
2:55 am 02:55 Clear 62 16.8 58 14.6 87 87 S 17 28 29.62 1003 10 16.0934 N/A
3:15 am 03:15 Clear 62 16.5 58 14.6 89 89 S 13 20 29.62 1003 10 16.0934 N/A
3:35 am 03:35 Partly Cloudy with Light Rain 63 17 60 15.4 90 90 S 18 30 29.62 1003 10 16.0934 N/A
3:55 am 03:55 Partly Cloudy 64 17.7 61 16 90 90 S 16 26 29.62 1003 10 16.0934 N/A
4:15 am 04:15 Mostly Cloudy with Nearby Thunderstorms 65 18.3 62 16.5 89 89 S 21 33 29.62 1003 10 16.0934 N/A
4:35 am 04:35 Mostly Cloudy with Light Rain 65 18.2 62 16.5 90 90 S 18 30 29.62 1003 10 16.0934 N/A
4:55 am 04:55 Mostly Cloudy with Drizzle 64 18 61 15.9 88 88 SSW 15 24 29.62 1003 10 16.0934 N/A
5:15 am 05:15 Partly Cloudy with Rain 64 17.7 58 14.4 81 81 S 10 17 29.59 1002 10 16.0934 N/A
5:35 am 05:35 Partly Cloudy 64 17.5 57 13.8 79 79 SE 12 19 29.59 1002 10 16.0934 N/A
5:55 am 05:55 Mostly Cloudy 63 17.3 56 13.6 79 79 ESE 9 15 29.59 1002 10 16.0934 N/A
6:15 am 06:15 Partly Cloudy 63 17.3 58 14.3 83 83 S 8 13 29.62 1003 10 16.0934 N/A
6:35 am 06:35 Sunny 62 16.6 57 13.8 84 84 S 8 13 29.62 1003 10 16.0934 N/A
6:55 am 06:55 Sunny 62 16.7 59 15 90 90 S 13 20 29.62 1003 10 16.0934 N/A
7:15 am 07:15 Sunny 62 16.6 59 15 90 90 SSE 9 15 29.62 1003 10 16.0934 N/A
7:35 am 07:35 Sunny 62 16.5 59 15 91 91 S 10 17 29.62 1003 10 16.0934 N/A
7:55 am 07:55 Sunny 62 16.5 58 14.6 89 89 S 13 20 29.62 1003 10 16.0934 N/A
8:15 am 08:15 Sunny 62 16.6 57 14 85 85 S 14 22 29.62 1003 10 16.0934 N/A
8:35 am 08:35 Sunny 62 16.8 57 14 84 84 S 12 19 29.62 1003 10 16.0934 N/A
8:55 am 08:55 Sunny 62 16.8 57 13.7 82 82 S 14 22 29.62 1003 10 16.0934 N/A
9:15 am 09:15 Sunny 62 16.7 56 13.6 82 82 S 14 22 29.62 1003 10 16.0934 N/A
9:35 am 09:35 Sunny 62 16.8 57 13.7 82 82 S 15 24 29.62 1003 10 16.0934 N/A
9:55 am 09:55 Sunny 64 18 57 14 78 78 S 18 30 29.62 1003 10 16.0934 N/A
10:15 am 10:15 Sunny 64 18 57 13.8 77 77 SSW 21 33 29.62 1003 10 16.0934 N/A
10:35 am 10:35 Sunny 64 18 57 13.8 77 77 SSW 16 26 29.62 1003 10 16.0934 N/A
10:55 am 10:55 Sunny 65 18.3 57 13.9 76 76 S 17 28 29.62 1003 10 16.0934 N/A
11:15 am 11:15 Sunny 67 19.7 58 14.3 71 71 S 18 30 29.62 1003 10 16.0934 N/A
11:35 am 11:35 Sunny 69 20.5 57 13.9 66 66 S 24 39 29.59 1002 10 16.0934 N/A
11:55 am 11:55 Partly Cloudy 69 20.5 57 13.8 66 66 SSW 24 39 29.59 1002 10 16.0934 N/A
12:15 pm 12:15 Partly Cloudy 69 20.4 58 14.3 68 68 S 20 31 29.62 1003 10 16.0934 N/A
12:35 pm 12:35 Partly Cloudy 69 20.5 58 14.7 70 70 SSW 20 31 29.59 1002 10 16.0934 N/A
12:55 pm 12:55 Partly Cloudy 71 21.5 58 14.4 64 64 S 20 31 29.59 1002 10 16.0934 N/A
1:15 pm 13:15 Sunny 71 21.5 58 14.4 64 64 S 22 35 29.59 1002 10 16.0934 N/A
1:35 pm 13:35 Sunny 71 21.5 58 14.4 64 64 SSW 18 30 29.59 1002 10 16.0934 N/A
1:55 pm 13:55 Partly Cloudy 71 21.8 58 14.7 64 64 SSW 14 22 29.59 1002 10 16.0934 N/A
2:15 pm 14:15 Partly Cloudy 72 22.3 60 15.4 65 65 SSW 18 30 29.59 1002 10 16.0934 N/A
2:35 pm 14:35 Partly Cloudy 71 21.9 59 15 65 65 S 21 33 29.59 1002 10 16.0934 N/A
2:55 pm 14:55 Partly Cloudy 72 22.4 60 15.3 64 64 S 18 30 29.56 1001 10 16.0934 N/A
3:15 pm 15:15 Partly Cloudy 71 21.7 58 14.6 64 64 S 22 35 29.56 1001 10 16.0934 N/A
3:35 pm 15:35 Sunny 71 21.6 59 15.1 67 67 S 23 37 29.56 1001 10 16.0934 N/A
3:55 pm 15:55 Sunny 71 21.7 59 15.1 66 66 SSE 24 39 29.56 1001 10 16.0934 N/A
4:15 pm 16:15 Sunny 70 21 58 14.5 67 67 S 25 41 29.56 1001 10 16.0934 N/A
4:35 pm 16:35 Sunny 70 21.2 58 14.7 67 67 S 24 39 29.53 1000 10 16.0934 N/A
4:55 pm 16:55 Sunny 70 21.2 58 14.6 66 66 SSE 31 50 29.53 1000 10 16.0934 N/A
5:15 pm 17:15 Sunny 70 21.2 56 13.5 62 62 SSE 28 44 29.53 1000 10 16.0934 N/A
5:35 pm 17:35 Sunny 71 21.4 55 12.9 59 59 SSE 28 44 29.53 1000 10 16.0934 N/A
5:55 pm 17:55 Sunny 70 21.2 54 12 56 56 SSE 23 37 29.53 1000 10 16.0934 N/A
6:15 pm 18:15 Sunny 70 20.9 54 12.3 58 58 SE 21 33 29.53 1000 10 16.0934 N/A
6:35 pm 18:35 Sunny 69 20.4 54 12.3 60 60 SSE 24 39 29.53 1000 10 16.0934 N/A
6:55 pm 18:55 Sunny 67 19.5 55 12.5 64 64 SSE 16 26 29.56 1001 10 16.0934 N/A
7:15 pm 19:15 Sunny 67 19.2 55 12.5 65 65 SSE 20 31 29.59 1002 10 16.0934 N/A
7:35 pm 19:35 Sunny 66 19 55 12.5 66 66 S 16 26 29.59 1002 10 16.0934 N/A
7:55 pm 19:55 Partly Cloudy 66 18.7 54 12.1 66 66 SSW 29 46 29.59 1002 10 16.0934 N/A
8:15 pm 20:15 Mostly Cloudy 59 15.2 51 10.4 73 73 SW 18 30 29.65 1004 10 16.0934 N/A
8:35 pm 20:35 Mostly Cloudy with Rain 57 14 51 10.8 81 81 SW 8 13 29.65 1004 10 16.0934 N/A
8:55 pm 20:55 Mostly Cloudy with Rain 56 13.6 52 11.1 85 85 N N/A 29.59 1002 10 16.0934 N/A
9:15 pm 21:15 Mostly Cloudy 56 13.6 53 11.6 88 88 SSE 8 13 29.62 1003 10 16.0934 N/A
9:35 pm 21:35 Mostly Cloudy 56 13.6 53 11.4 87 87 S 6 9 29.59 1002 10 16.0934 N/A
9:55 pm 21:55 Partly Cloudy 58 14.2 52 11 81 81 S 17 28 29.62 1003 10 16.0934 N/A
10:15 pm 22:15 Mostly Cloudy 58 14.6 51 10.7 78 78 S 18 30 29.62 1003 10 16.0934 N/A
10:35 pm 22:35 Partly Cloudy 59 15 51 10.3 74 74 SE 18 30 29.59 1002 10 16.0934 N/A
10:55 pm 22:55 Clear 60 15.4 50 10 70 70 SE 14 22 29.53 1000 10 16.0934 N/A
11:15 pm 23:15 Mostly Cloudy 59 15 51 10.4 74 74 SSE 21 33 29.56 1001 10 16.0934 N/A
11:35 pm 23:35 Partly Cloudy 58 14.5 51 10.3 76 76 SSE 8 13 29.53 1000 10 16.0934 N/A
11:55 pm 23:55 Mostly Cloudy 58 14.6 50 10.1 75 75 S 12 19 29.53 1000 10 16.0934 N/A

Powered by AerisWeather